Weather in Mishkino

Russia / Kurgan Oblast     55°20′26″N   63°54′28″E
temp.,
°C
wind,
m/s
gust,
m/s
humid.,
%
clouds,
%
prec.,
mm/h
press.,
hPa
HPBL,
m
13 may, thu
thu1323:00+15ne225762 0.0 102614
02:00+14se115759 0.0 102710
05:00+13wsw225971 0.0 102711
08:00+19w35465 0.0 1027318
11:00+23wnw563748 0.0 10251386
14:00+26nw57318 0.0 10242128
17:00+26nnw67286 0.0 10242268
20:00+22n23445 0.0 102419
14 may, fri
fri1423:00+18nnw33474 0.0 102523
02:00+16ese33645 0.0 102636
05:00+15sse336825 0.0 102724
08:00+21s34515 0.0 1027292
11:00+26ssw33362 0.0 10271342
14:00+28wsw34271 0.0 10252696
17:00+29w35255 0.0 10242912
20:00+25sw223934 0.0 102311
15 may, sat
sat1523:00+21sw334870 0.3 102324
02:00+19wsw33524 0.0 102331
05:00+17wnw34565 0.0 102456
08:00+22wnw45455 0.0 1024260
11:00+28wnw56335 0.0 10231372
14:00+30wnw672692 0.0 10222427
17:00+30wnw682553 0.0 10212854
20:00+25wsw334017 0.0 101934
16 may, sun
sun1623:00+21wsw510478 0.0 1020169
02:00+19wnw51450100 0.0 1020258
05:00+16nnw376337 0.0 1021110
08:00+22wnw354811 0.0 1021325
11:00+27wnw45359 0.0 10211252
14:00+30wnw452611 0.0 10202165
17:00+30wnw45245 0.0 10192470
20:00+26wsw23365 0.0 101815
17 may, mon
mon1723:00+21wsw47385 0.0 101984
02:00+20nw33465 0.0 101819
05:00+18w235355 0.1 101929
08:00+23w34458 0.1 1019216
11:00+29wnw45282 0.1 10171710
14:00+30w58235 0.0 10163540
17:00+30wnw57221 0.0 10152361
20:00+24wsw6114066 0.0 1015256